TIME,DELAY(SENSOR),PRES,OXYGEN,RAWTEMP,T(OPTODE),TCPHASE,FLUOR,BETA(BETA700),BETA(BETA412),BETA(BETA440),CDOM,C(CSC),ED(ED412.40),ED(ED444.00),ED(ED489.70),ED(ED554.30),LU(LU411.80),LU(LU443.40),LU(LU489.60),LU(LU554.10),COMP,TILTX,TILTY,CHECK
1374549017,5809,880.9299926757812000,46.9870414733886700,663.5590209960938000,4.5107350349426270,54.0147209167480500,53,99,84,78,78,15380,2147754733,2147426294,2148008996,2147876982,2147638208,2147050294,2148257728,2147197641,2386,4,13,33512
1374552613,5807,959.3900146484375000,50.9774703979492200,671.7891845703125000,4.2390770912170410,53.5589790344238300,52,100,85,79,80,15380,2147754459,2147424502,2148012498,2147875181,2147639899,2147050605,2148260105,2147194980,1487,4,13,4365
1374556213,5810,972.1699829101562000,51.9517097473144500,673.4083862304688000,4.1855368614196780,53.4485893249511700,52,99,87,79,79,15380,2147757001,2147422363,2148013952,2147874358,2147644845,2147050468,2148262299,2147196626,278,4,13,17031
1374559813,5809,979.5499877929688000,52.2337913513183600,674.0607910156250000,4.1639599800109860,53.4166603088378900,53,98,83,79,79,15380,2147754322,2147421897,2148013824,2147874240,2147642002,2147059629,2148260690,2147198811,55,4,13,37241
1374563413,5808,981.5300292968750000,52.1121215820312500,675.2603759765625000,4.1242709159851070,53.4507598876953100,53,96,88,79,78,15378,2147756041,2147424466,2148012845,2147870747,2147640758,2147053229,2148259364,2147197714,260,4,13,19339
1374567013,5809,984.1900024414062000,52.1673088073730500,676.0213012695312000,4.0990848541259770,53.4498710632324200,52,101,86,80,79,15376,2147755264,2147420690,2148010432,2147873892,2147645193,2147055625,2148261504,2147195830,2739,4,13,50512
1374570613,5812,980.7600097656250000,51.4533882141113300,676.0219726562500000,4.0990600585937500,53.5492591857910160,53,100,86,78,80,15376,2147760777,2147424566,2148011437,2147873435,2147641060,2147057133,2148264082,2147199277,398,4,13,51593
1374574213,5809,994.0300292968750000,51.9252586364746100,675.4837036132812000,4.1168789863586430,53.4766311645507800,53,98,86,78,78,15379,2147755218,2147427364,2148011501,2147874870,2147642441,2147055606,2148261302,2147200566,20,4,13,62630
1374577813,5808,988.4699707031250000,51.8736610412597660,675.4033813476562000,4.1195368766784670,53.4836502075195300,53,99,84,79,80,15376,2147756928,2147423158,2148012726,2147873810,2147640237,2147055734,2148262427,2147195986,3435,4,13,19956
1374581413,5811,987.0000000000000000,51.0418395996093750,676.4833984375000000,4.0837860107421875,53.6082191467285160,52,98,86,79,79,15376,2147756333,2147423003,2148009435,2147875721,2147643867,2147051748,2148259053,2147196178,156,4,13,62581
1374585013,5810,991.9000244140625000,51.7700691223144500,675.8328247070312000,4.1053237915039060,53.5027198791503900,52,98,83,78,79,15377,2147756690,2147422793,2148011163,2147876187,2147643538,2147055104,2148264640,2147198235,27,4,13,10783
1374588613,5806,996.0900268554688000,51.5697097778320300,675.8444824218750000,4.1049370765686035,53.5284004211425800,52,97,87,79,79,15374,2147754505,2147425654,2148011483,2147873353,2147640411,2147053851,2148261147,2147196827,3047,4,13,581
1374592213,5809,998.6199951171875000,51.2226600646972660,675.3737792968750000,4.1205182075500490,53.5720481872558600,52,97,83,76,79,15370,2147760804,2147422875,2148013101,2147874358,2147642102,2147049590,2148263204,2147196370,343,4,13,5749
1374595813,5808,1000.4500122070312000,51.2918205261230500,674.5526733398438000,4.1476879119873050,53.5525016784668000,53,101,85,79,79,15375,2147757641,2147423771,2148009636,2147876315,2147640713,2147053065,2148264521,2147193170,195,4,13,20116
1374599413,5805,996.7600097656250000,51.2490997314453100,674.9282836914062000,4.1352581977844240,53.5608482360839840,53,99,87,78,80,15374,2147758957,2147425161,2148015305,2147872658,2147642651,2147054372,2148266203,2147200731,3064,4,13,60048
1374603013,5806,1001.5700073242188000,50.8839302062988300,675.1204223632812000,4.1289019584655760,53.6127204895019500,53,97,86,78,80,15365,2147753974,2147424923,2148013202,2147869824,2147641408,2147053549,2148261897,2147197869,135,4,13,63557
1374606613,5809,995.4099731445312000,51.0003204345703100,675.2747192382812000,4.1237959861755370,53.5985717773437500,52,99,84,79,80,15373,2147758464,2147424786,2148012086,2147875117,2147642148,2147049014,2148261165,2147203136,3276,4,13,29487
1374610213,5809,990.1500244140625000,50.9028511047363300,677.0864868164062000,4.0638160705566410,53.6341285705566400,52,97,82,78,79,15371,2147760877,2147422710,2148011026,2147874788,2147645796,2147050276,2148263926,2147195556,200,4,13,33652
1374613813,5809,991.6799926757812000,50.8642692565918000,677.5966186523438000,4.0469250679016110,53.6495399475097660,53,96,85,78,80,15370,2147753764,2147421220,2148014930,2147876617,2147644854,2147054619,2148263222,2147195958,156,4,13,2833
1374617413,5810,987.1699829101562000,51.5623817443847660,678.9772949218750000,4.0011839866638180,53.5686798095703100,53,98,84,77,80,15367,2147760091,2147424448,2148011446,2147875986,2147642377,2147050596,2148261440,2147194139,51,4,13,28994
1374621013,5808,994.1199951171875000,50.9337997436523440,677.9357299804688000,4.0356922149658200,53.6393699645996100,51,100,87,79,78,15369,2147756790,2147424950,2148013540,2147872859,2147642340,2147053394,2148263040,2147196068,3589,4,13,38380
1374624613,5808,996.0499877929688000,51.5338706970214840,677.4959716796875000,4.0502572059631350,53.5525703430175800,52,98,84,79,79,15369,2147757202,2147422957,2148011172,2147874468,2147638482,2147054180,2148261897,2147195730,3443,4,13,13364
1374628213,5813,995.5999755859375000,50.9982299804687500,676.4232788085938000,4.0857748985290530,53.6109199523925800,52,97,87,81,78,15366,2147757366,2147424018,2148011730,2147871305,2147641133,2147053897,2148258166,2147197632,413,4,13,24295
1374631813,5807,1000.2999877929688000,50.7024612426757800,676.5200195312500000,4.0825748443603520,53.6543312072753900,52,100,87,78,79,15367,2147757421,2147423360,2148010468,2147873984,2147642715,2147056301,2148264813,2147194642,192,4,13,40186
1374635413,5807,1010.6799926757812000,51.4141807556152340,675.3107299804688000,4.1226038932800290,53.5469589233398440,52,109,87,78,79,15366,2147757229,2147425408,2148009014,2147871515,2147639515,2147052827,2148262811,2147197220,2745,4,13,50117
1374639013,5804,1009.2600097656250000,51.6438789367675800,674.8889770507812000,4.1365599632263180,53.5047187805175800,52,97,85,79,79,15364,2147757248,2147422427,2148011776,2147871990,2147642889,2147049078,2148261312,2147196032,3187,4,13,38235
1374642613,5809,1006.2399902343750000,51.2610206604003900,675.0325927734375000,4.1318092346191410,53.5593986511230500,52,99,90,78,79,15362,2147753846,2147424118,2148010560,2147872749,2147641398,2147057801,2148264557,2147193764,203,4,13,21463
1374646213,5811,1008.4899902343750000,50.9876594543457000,675.1613769531250000,4.1275439262390140,53.5975303649902340,52,98,86,79,79,15363,2147756187,2147423405,2148013421,2147875849,2147644105,2147053193,2148261147,2147195136,3582,4,13,45076
1374649813,5811,1008.7500000000000000,51.2472801208496100,675.0770263671875000,4.1303410530090330,53.5620307922363300,52,98,85,78,79,15362,2147760237,2147422080,2148014564,2147874322,2147644553,2147049380,2148262921,2147196516,50,4,13,15344
1374653413,5806,1000.1699829101562000,51.2277717590332000,675.4644165039062000,4.1175189018249510,53.5713005065918000,52,98,85,77,81,15363,2147757129,2147426980,2148010816,2147874102,2147641408,2147051648,2148265462,2147194130,3394,4,13,26775
1374657013,5806,999.6099853515625000,49.8371810913085940,676.4312133789062000,4.0855140686035160,53.7699813842773440,53,98,83,78,79,15363,2147760740,2147424932,2148013229,2147873654,2147640374,2147049709,2148268480,2147197156,3511,4,13,57313
1374660613,5808,990.6900024414062000,50.9233016967773440,677.9185791015625000,4.0362591743469240,53.6455688476562500,53,98,85,78,79,15363,2147755465,2147427090,2148014299,2147873088,2147640960,2147052004,2148265453,2147195264,646,4,13,30468
1374664213,5807,993.5700073242188000,50.6077613830566400,678.1079711914062000,4.0299839973449710,53.6906700134277340,53,97,82,78,79,15358,2147754450,2147422518,2148013046,2147874057,2147641517,2147050185,2148265033,2147196416,107,4,13,56672
1374667813,5807,1005.0700073242188000,51.0873794555664060,677.0529174804688000,4.0649299621582030,53.6077117919921900,53,102,88,79,80,15361,2147755382,2147426916,2148012233,2147874514,2147641005,2147057033,2148260854,2147195145,3392,4,13,24900
1374671413,5809,1009.6799926757812000,51.0829811096191400,675.9719238281250000,4.1007189750671390,53.5965499877929700,52,97,87,78,80,15358,2147755876,2147424630,2148015780,2147876516,2147643008,2147053988,2148266258,2147196434,3187,4,13,56643
1374675013,5809,1008.0599975585938000,51.1720695495605500,675.4539794921875000,4.1178631782531740,53.5763893127441400,52,98,84,78,79,15358,2147755675,2147424429,2148012269,2147872905,2147644964,2147055515,2148258532,2147195465,124,4,13,30620
1374678613,5806,1000.6500244140625000,51.1133689880371100,675.9984741210938000,4.0998377799987790,53.5964202880859400,52,99,84,78,80,15357,2147751360,2147424649,2148012726,2147874230,2147640429,2147052928,2148266496,2147193792,3449,4,13,63928
1374682213,5811,1009.0499877929688000,51.2940101623535160,675.5592041015625000,4.1143798828125000,53.5642509460449200,52,97,85,80,81,15358,2147753627,2147423204,2148014546,2147873874,2147643510,2147057627,2148262610,2147199652,144,4,13,34334
1374685813,5812,1008.9600219726562000,51.2437400817871100,675.1635742187500000,4.1274738311767580,53.5652084350585940,53,99,85,78,78,15355,2147756937,2147425362,2148014253,2147872548,2147641444,2147053796,2148257289,2147197348,54,4,13,9689
1374689413,5810,1010.7299804687500000,50.1331481933593750,675.2158813476562000,4.1257419586181640,53.7161788940429700,52,97,84,80,80,15358,2147751588,2147423634,2148011044,2147871323,2147641590,2147057014,2148264292,2147197248,286,4,13,39580
1374693013,5810,1001.7800292968750000,50.8151893615722660,676.4733276367188000,4.0841240882873535,53.6402702331543000,52,98,85,79,79,15355,2147755410,2147424521,2148011428,2147873024,2147641142,2147056182,2148263369,2147195803,281,4,13,2403
1374693355,5808,1002.1400146484375000,50.8818588256835940,676.7371215820312000,4.0753879547119140,53.6346282958984400,52,99,84,78,80,15362,2147755309,2147424932,2148013622,2147872932,2147643053,2147050889,2148262290,2147199780,1,4,13,47198
